THOR ABLESTAR DEB, 357

Orbit data source: Space-Track

THOR ABLESTAR DEB, 357 is space debris in LEO originally from a launch on Thu, 29 Jun 1961 UTC launched from the Air Force Eastern Test Range (AFETR). Debris objects in space refer to the collection of defunct objects orbiting the Earth. Examples of debris include non-operational satellites, rocket bodies, and fragments generated from explosions, collisions, or faulty payload assembly.

Loading next visibility...
Identifier
357, 1961-015DX
Orbit
LEO
Country
Flag of USUS
Related business
Manufacturer
Unknown
Mission
Spacecraft
Bus & Motor
Unknown
Mass
Unknown
Launch date (UTC)
1961-06-29 (65 years ago)
Launch vehicle
Unknown
Launch site
Air Force Eastern Test Range (AFETR)
Object type
Payload
Rocket body
Debris
Shape & HBR
Unknown shape, 0.1 m
Radar Cross Section
Small (<0.1 m²)

Expand to show TLE details & history
Last TLE update: 1 day ago

TLE from 1 day ago
0 THOR ABLESTAR DEB
1 00357U 61015DX  26125.78449596  .00000854  00000-0  53343-3 0  9994
2 00357  66.8093 352.9443 0016724 246.6753 113.2576 14.09505192289888
Epoch: 2026-05-05T18:49Z
TLE epoch observation values (Epoch: 2026-05-05T18:49:40.450Z)
Latitude
-0.00004°
Longitude
-153.12863°
Altitude
867.959 km
Speed
7.416 km/s
True Right ascension
23h 31m 46s
True Declination
0° 00' 00"
Sunlit
Object was in daylight at epoch
Visualization orbit readout
Latitude
Unknown
Longitude
Unknown
Altitude
Unknown
Speed
Unknown
Apparent Right ascension
Unknown
Apparent Declination
Unknown
Sunlit
N/A
Visualization observer readout
Local Sidereal Time
02:28:27
Azimuth
Unknown
Elevation
Unknown
Doppler factor
Unknown
Orbital elements
Apogee altitude
871.548 km
Perigee altitude
847.339 km
Semi-major axis
7,237.58 km
Eccentricity
0.00167
Inclination
66.8093°
RAAN
352.9443°
Arg. of periapsis
246.6753°
True anomaly
113.43352°
Mean anomaly
113.2576°
Eccentric anomaly
113.34558°
Mean motion
3.52495 °/min
Orbital period
102.13 mins
BSTAR
0.00053343
Loading maneuver chart data...
Computing Atmospheric mass density...

Documentation

Showing up to 5 results
|